Tracking 20621 objects as of 1-Apr-2020
HD Live streaming from Space Station
objects crossing your sky now

STARLINK-1193

Track STARLINK-1193 now!
10-day predictions
STARLINK-1193 is classified as:


NORAD ID: 45100
Int'l Code: 2020-006BJ
Perigee: 381.3 km
Apogee: 392.5 km
Inclination: 53.0 °
Period: 92.1 minutes
Semi major axis: 6757 km
RCS: Unknown
Launch date: January 29, 2020
Source: United States (US)
Launch site: AIR FORCE EASTERN TEST RANGE (AFETR)
aabbcc
Your satellite tracking list
Your tracking list is empty




NASA's NSSDC Master Catalog

Two Line Element Set (TLE):
1 45100U 20006BJ  20091.91667824 +.00034498 +00000-0 +38051-3 0  9991
2 45100 053.0015 286.9019 0008298 319.7953 207.0680 15.62749217010160
Source of the keplerian elements: AFSPC